Home   Weather   Plauen   Past weeks

Flag for Germany Past Weather in Plauen, Saxony, Germany — Yesterday and Last 2 Weeks

37 °F

Partly cloudy.

Feels Like: 35 °F
Forecast: 42 / 50 °F
Wind: 3 mph from North

Location: Hof Airport

Current Time: Oct 20, 2016 at 9:44:39 PM

Latest Report: Oct 20, 2016 at 7:50 PM

Visibility: N/A

Pressure: 29.86 "Hg

Humidity: 93%

Dew Point: 36 °F

Location of PlauenLocation

Past Weather in Plauen — Graph


Plauen Temperature Yesterday

Maximum temperature yesterday: 46 °F (at 1:20 PM)
Minimum temperature yesterday: 43 °F (at 7:50 AM)
Average temperature yesterday: 44 °F

High & Low Weather Summary for the Past Weeks

High63 °F (Oct 16, 3:20 PM)94% (Oct 16, 9:20 AM)30.27 "Hg (Oct 16, 9:20 AM)
Low36 °F (Oct 10, 7:50 AM)49% (Oct 16, 3:20 PM)29.80 "Hg (Oct 14, 7:20 PM)
Average45 °F82%30.07 "Hg
* Reported Oct 5 7:20 PM — Oct 20 7:50 PM, Plauen, Weather by CustomWeather, © 2016

Note: Actual official high and low records may vary slightly from our data, if they occured in-between our weather recording intervals... More about our weather records


Plauen Weather History for the Previous 24 Hours

Scroll right to see more
Time TempWeatherWind HumidityBarometerVisibility
7:50 PM
Thu, Oct 20
37 °FPartly cloudy.3 mph93%29.86 "HgN/A
7:20 PM39 °FLow clouds.No wind87%29.86 "HgN/A
6:50 PM39 °FMostly cloudy.No wind87%29.86 "HgN/A
6:20 PM39 °FPartly cloudy.5 mph87%29.86 "HgN/A
5:50 PM39 °FDrizzle. Partly sunny.6 mph87%29.86 "HgN/A
5:20 PM39 °FLight rain. Broken clouds.3 mph87%29.86 "HgN/A
4:50 PM39 °FLight rain. Partly sunny.7 mph87%29.89 "HgN/A
4:20 PM39 °FRain. Partly sunny.7 mph87%29.89 "HgN/A
3:50 PM39 °FLight rain. Mostly cloudy.7 mph87%29.89 "HgN/A
3:20 PM39 °FLight rain. Broken clouds.10 mph93%29.89 "HgN/A
2:50 PM41 °FRain. Broken clouds.7 mph87%29.89 "HgN/A
2:20 PM41 °FLight rain. Broken clouds.8 mph87%29.89 "HgN/A
1:50 PM41 °FLight rain. Partly sunny.7 mph93%29.89 "Hg4 mi
1:20 PM43 °FLight rain. Partly sunny.8 mph87%29.92 "HgN/A
12:50 PM41 °FLight rain. Partly sunny.7 mph93%29.92 "Hg4 mi
12:20 PM41 °FRain. Broken clouds.7 mph93%29.92 "Hg4 mi
11:50 AM41 °FRain. Partly sunny.7 mph87%29.92 "Hg2 mi
11:20 AM41 °FRain. Mostly cloudy.10 mph87%29.92 "Hg3 mi
10:50 AM41 °FLight rain. Mostly cloudy.10 mph87%29.92 "Hg4 mi
10:20 AM39 °FDrizzle. Mostly cloudy.10 mph93%29.92 "Hg2 mi
9:50 AM41 °FDrizzle. Broken clouds.10 mph87%29.92 "Hg3 mi
9:20 AM39 °FDrizzle. Partly sunny.12 mph93%29.92 "Hg3 mi
8:50 AM39 °FPartly sunny.8 mph93%29.92 "Hg4 mi
8:20 AM39 °FDrizzle. Broken clouds.10 mph93%29.92 "Hg4 mi
7:50 AM39 °FDrizzle. Partly sunny.9 mph93%29.92 "Hg4 mi
7:20 AM39 °FPassing clouds.8 mph87%29.92 "Hg5 mi
Weather by CustomWeather, © 2016

See weather overviewHow to use our weather pages